sat.trackr.live / text

‹ back to catalog

STARLINK-31735

NORAD 60054 · 2024-112S

PAYLOAD ACTIVE UNKNOWN

§ Identity

Operator
Country
US
Launch date
2024-06-08
Launch site
AFWTR
Launch vehicle
Mass (kg)
RCS (m²)

Purposes: comms

External: N2YO · Heavens-Above · Gunter

§ Orbital elements

Epoch: 2026-05-25T02:30:13.742208Z

Period
94.11 min
Inclination
53.1601°
Eccentricity
0.0001247
Mean motion
15.30195632 rev/d
Perigee alt
474.4 km
Apogee alt
476.1 km
Semi-major
6,853.4 km
B*
3.2647e-5
RAAN
83.2221°
Arg perigee
78.3983°
Mean anomaly
281.7157°
Rev number
11,029

§ Raw data

STARLINK-317351 60054U 24112S   26145.10432572  .00000608  00000+0  32647-4 0  99962 60054  53.1601  83.2221 0001247  78.3983 281.7157 15.30195632110292

JSON: /api/v1/satellites/60054 · /tle

For live sub-satellite position, see the globe view (requires WebGL).

§ Visibility from observer

Set your observer location to see the next 7 days of passes ≥ 10°. The values pass through the URL so the page stays shareable.

No JS? Fill the form by hand. The geolocation button needs JavaScript.